Wind_Speed
20 20 20 20 20 20 20 20 20 20 20 20 21 22 22 22 23 24 24 25 25 26 26 27 27 28 28 29 29 29 29 30 30 30 31 31 31 31
20 21 22 22 21 22 22 22 23 23 23 23 24 24 25 25 25 26 27 27 28 28 28 29 30 31 31 31 32 32 32 33 33 34 34 34 35 35
21 20 21 21 22 23 23 24 24 25 25 26 27 27 27 28 29 29 29 30 31 31 32 32 33 34 34 34 35 35 36 36 37 37 38 38 38 39
21 22 22 22 23 24 25 26 27 27 27 27 28 29 29 30 31 32 32 33 34 34 35 35 35 36 36 37 38 38 39 40 41 41 41 42 42 42
22 23 23 24 24 25 26 27 28 29 29 29 29 30 31 32 33 34 34 35 35 36 36 37 38 38 39 39 40 41 42 43 44 44 45 46 46 47
23 24 25 25 26 26 27 27 28 29 30 31 31 32 32 34 35 36 36 36 37 37 38 39 40 41 41 42 43 44 45 46 47 48 49 50 50 51
23 24 26 27 28 28 29 29 29 31 31 33 34 34 35 36 36 37 37 37 39 39 40 41 42 43 44 45 46 47 48 48 49 50 52 53 53 54
24 25 26 28 28 29 30 30 31 32 33 34 35 36 37 37 38 38 39 40 41 42 43 44 45 46 47 48 49 49 50 51 52 53 54 55 56 57
25 27 28 28 29 29 30 30 31 32 33 34 36 36 37 38 39 40 41 43 44 45 47 48 49 49 50 52 53 53 54 54 55 56 57 58 59 59
27 28 29 29 30 31 32 32 32 32 33 35 36 37 38 39 40 42 44 45 47 48 49 50 50 51 53 55 56 56 57 57 58 59 60 60 61 61
27 28 29 29 30 30 31 31 32 33 35 36 38 39 40 41 42 44 45 46 47 48 50 51 52 52 54 56 57 58 59 60 60 61 61 62 62 63
28 28 30 31 31 31 31 32 33 34 36 37 39 40 41 42 43 45 47 48 49 50 51 52 53 54 55 56 58 60 61 61 62 62 62 62 63 64
28 28 30 31 32 32 33 33 35 36 37 39 40 41 41 43 44 45 46 48 49 51 52 54 55 56 58 58 58 60 61 61 62 62 62 62 62 63
29 30 30 31 32 33 35 36 38 38 39 40 41 43 43 44 45 46 47 48 49 51 52 54 55 56 57 57 58 58 59 59 60 60 61 60 60 59
30 31 31 32 33 34 35 36 37 38 39 40 41 42 43 44 45 46 47 48 49 50 51 52 52 53 53 54 55 55 55 56 57 57 57 57 56 56
30 31 31 32 33 34 34 35 37 38 39 40 40 41 42 43 43 44 45 46 47 47 48 48 48 49 50 50 51 51 51 51 51 50 50 49 49 49
30 31 31 31 31 32 34 35 36 37 37 38 39 40 40 41 42 43 43 43 44 45 45 45 45 46 47 47 47 46 46 46 45 45 44 43 43 42
29 29 30 30 31 32 33 34 34 35 35 36 37 38 38 39 39 39 40 41 42 42 42 42 42 42 43 43 43 42 41 41 40 40 39 38 37 37
29 29 30 30 30 31 32 32 32 33 34 34 35 35 36 36 37 38 39 39 40 40 40 40 40 40 39 39 38 38 37 37 36 35 34 33 32 32
28 28 28 29 29 30 31 31 32 32 33 33 33 34 35 35 36 36 37 37 37 38 38 38 37 37 36 35 34 34 34 33 32 31 30 28 28 27
26 26 27 28 28 29 29 30 31 31 31 32 32 32 33 33 34 35 35 35 35 35 35 35 34 34 33 33 32 31 31 31 30 28 27 25 24 23
26 26 27 27 28 29 29 30 30 30 30 30 31 31 32 32 33 33 33 33 33 34 33 33 32 32 31 31 31 30 29 29 28 26 25 24 22 21
26 26 27 27 28 28 29 29 29 28 28 29 29 30 30 30 31 31 32 32 32 32 32 32 31 31 31 30 30 29 28 27 26 25 23 23 22 21
Wind_Direction
263 264 264 265 265 267 268 269 272 274 275 275 275 278 278 278 279 280 280 280 280 281 282 282 282 282 282 282 282 282 281 280 280 280 279 278 278 277
264 266 267 266 267 267 268 270 272 274 275 277 278 279 281 281 282 282 283 283 282 283 283 283 283 283 283 282 281 281 281 280 279 279 278 278 277 277
264 268 270 268 268 268 269 272 273 275 277 277 278 279 280 280 281 281 282 284 283 283 284 284 283 283 283 283 283 282 281 280 279 279 278 278 277 276
266 268 270 272 272 272 272 273 275 276 277 278 278 279 280 281 282 283 283 282 282 283 284 284 283 283 283 283 283 282 282 281 281 280 279 278 277 276
267 269 271 272 274 275 275 276 277 278 277 278 279 280 281 282 283 284 284 283 283 283 283 284 283 283 283 283 282 282 282 281 280 279 279 278 277 276
267 268 271 273 273 275 277 278 279 280 279 279 279 279 281 282 282 283 283 283 284 284 283 283 283 284 284 283 283 282 282 281 281 280 278 278 277 276
269 269 270 271 274 276 278 279 281 281 282 282 281 281 282 283 283 283 283 284 285 286 286 285 285 285 284 284 283 283 283 282 281 281 280 278 277 277
274 273 274 277 276 277 278 280 281 282 284 284 283 284 283 283 282 282 282 283 285 285 286 287 287 286 285 285 284 283 282 282 281 280 280 279 278 277
276 277 277 279 280 280 281 282 282 283 284 284 285 284 285 284 285 285 284 285 285 285 286 286 286 286 286 286 286 285 284 283 282 281 280 279 278 277
280 280 280 282 282 282 282 284 285 286 287 288 287 287 286 286 286 286 286 286 287 287 287 287 286 287 287 287 286 286 286 285 283 282 282 281 280 279
283 283 284 285 285 285 285 286 287 288 289 289 289 289 289 289 289 289 289 290 290 290 289 289 288 288 288 287 287 286 286 285 284 283 282 281 280 279
285 285 285 286 287 287 287 287 289 290 291 292 291 291 292 293 293 293 293 293 293 292 292 292 291 290 290 289 288 288 287 285 284 284 283 282 281 280
286 287 288 287 288 290 291 291 291 291 293 293 294 295 296 296 296 296 295 295 295 294 294 293 293 292 292 291 290 289 289 288 287 286 285 284 283 282
288 289 289 290 292 292 293 294 294 294 295 297 299 299 299 300 299 299 298 298 297 297 296 295 295 294 293 292 291 290 290 289 288 287 287 286 285 283
291 291 292 294 295 294 294 296 297 298 300 301 302 301 300 301 301 301 301 301 301 300 299 298 297 296 295 295 294 292 291 290 290 289 289 288 286 285
293 293 295 296 296 297 298 299 300 301 302 302 302 302 302 303 303 303 304 304 304 304 304 303 303 301 300 299 298 297 295 295 294 293 292 291 289 288
293 295 297 299 300 301 301 301 302 302 303 303 303 304 304 305 306 307 308 308 308 308 308 308 307 306 306 304 304 302 301 300 299 298 296 294 292 291
296 298 300 301 301 302 303 304 305 306 306 306 307 307 308 310 311 312 313 314 314 314 313 312 310 310 310 309 309 308 307 306 304 302 300 298 296 294
299 298 300 302 303 304 305 306 307 308 309 309 310 312 313 315 316 317 318 318 317 317 317 316 315 315 314 314 314 313 313 312 310 308 306 303 300 298
299 301 303 305 306 306 307 308 310 311 312 313 314 315 317 319 320 321 322 322 322 322 322 321 322 322 322 322 321 320 319 319 319 317 313 310 306 303
302 304 306 307 307 308 310 311 312 313 314 316 317 318 320 322 323 324 325 325 327 328 328 329 329 329 329 328 328 327 327 326 326 325 323 319 315 311
305 306 307 309 309 310 311 311 312 313 315 317 319 321 322 324 326 328 329 329 330 331 333 333 333 334 334 334 333 333 333 332 331 330 330 328 325 322
305 307 308 309 309 309 310 311 312 314 316 318 320 323 325 327 328 330 331 332 333 334 335 335 336 337 338 338 337 337 337 338 337 335 334 333 332 329
Height
5871 5871 5872 5872 5872 5873 5873 5873 5874 5874 5874 5873 5872 5871 5870 5871 5870 5870 5869 5869 5868 5867 5867 5866 5865 5864 5863 5862 5861 5860 5859 5858 5857 5856 5855 5855 5854 5853
5866 5867 5867 5868 5868 5868 5868 5868 5868 5869 5868 5868 5867 5866 5865 5865 5864 5864 5863 5862 5862 5861 5860 5858 5857 5856 5855 5854 5853 5852 5851 5850 5849 5848 5847 5846 5845 5844
5861 5862 5862 5863 5863 5863 5863 5863 5863 5863 5863 5862 5861 5860 5859 5859 5858 5857 5857 5856 5854 5853 5852 5850 5849 5848 5846 5845 5844 5842 5841 5840 5838 5837 5836 5835 5834 5833
5856 5857 5857 5857 5858 5858 5858 5858 5857 5856 5856 5855 5854 5853 5852 5852 5850 5849 5849 5848 5846 5845 5843 5842 5840 5839 5837 5835 5834 5832 5830 5829 5827 5826 5825 5824 5822 5821
5851 5852 5852 5852 5852 5852 5851 5851 5850 5850 5849 5848 5847 5846 5845 5844 5842 5841 5840 5838 5837 5836 5834 5832 5830 5828 5827 5825 5823 5821 5819 5817 5815 5814 5812 5810 5809 5808
5845 5846 5846 5846 5846 5845 5845 5844 5844 5843 5842 5841 5840 5838 5837 5836 5834 5832 5831 5829 5827 5826 5824 5822 5820 5817 5815 5813 5811 5809 5806 5804 5802 5800 5798 5796 5795 5793
5840 5840 5840 5840 5839 5839 5838 5837 5836 5835 5834 5833 5831 5830 5829 5827 5825 5823 5821 5819 5817 5815 5813 5811 5808 5806 5804 5801 5798 5795 5793 5790 5788 5785 5783 5781 5779 5777
5834 5834 5833 5833 5832 5831 5831 5830 5829 5827 5826 5824 5823 5821 5819 5817 5815 5813 5811 5809 5806 5804 5801 5798 5795 5792 5790 5787 5784 5781 5778 5775 5772 5770 5767 5764 5762 5760
5828 5828 5827 5826 5825 5824 5823 5821 5820 5819 5817 5816 5814 5812 5810 5807 5805 5802 5799 5797 5794 5791 5788 5785 5782 5778 5775 5771 5768 5765 5762 5759 5755 5752 5749 5746 5743 5741
5822 5821 5820 5818 5817 5816 5815 5813 5812 5810 5808 5806 5804 5802 5799 5796 5794 5791 5788 5784 5781 5777 5774 5771 5767 5764 5759 5755 5751 5747 5744 5740 5737 5733 5730 5727 5723 5721
5815 5814 5812 5811 5809 5808 5807 5805 5803 5801 5799 5796 5794 5791 5788 5785 5782 5779 5775 5771 5767 5764 5760 5756 5752 5748 5743 5738 5734 5729 5725 5721 5717 5713 5709 5706 5703 5700
5808 5807 5805 5803 5801 5800 5798 5796 5794 5792 5789 5786 5783 5780 5776 5773 5769 5765 5761 5757 5753 5749 5744 5740 5735 5731 5727 5721 5715 5710 5706 5701 5697 5693 5689 5685 5681 5678
5801 5799 5797 5796 5793 5791 5789 5787 5785 5782 5779 5776 5772 5768 5765 5761 5756 5752 5748 5743 5738 5733 5728 5723 5718 5712 5707 5703 5697 5691 5685 5680 5676 5671 5666 5663 5659 5655
5793 5791 5789 5787 5785 5783 5780 5778 5775 5772 5768 5765 5761 5757 5753 5748 5744 5739 5734 5729 5723 5718 5712 5706 5701 5695 5689 5684 5679 5673 5666 5660 5655 5651 5646 5641 5638 5634
5785 5783 5781 5779 5776 5774 5771 5768 5764 5761 5758 5754 5750 5745 5741 5736 5731 5726 5720 5714 5709 5703 5697 5691 5684 5678 5671 5666 5661 5655 5649 5643 5637 5632 5627 5622 5618 5614
5777 5774 5772 5770 5767 5764 5761 5758 5754 5751 5747 5743 5738 5734 5729 5724 5719 5713 5708 5702 5696 5689 5682 5675 5669 5662 5656 5649 5643 5638 5631 5626 5620 5615 5610 5605 5601 5596
5769 5766 5764 5761 5758 5755 5752 5748 5744 5740 5736 5732 5727 5723 5718 5713 5707 5701 5695 5689 5683 5677 5670 5663 5656 5649 5642 5635 5629 5623 5617 5611 5605 5600 5595 5591 5586 5582
5761 5758 5756 5753 5750 5747 5743 5739 5735 5731 5727 5722 5718 5713 5708 5702 5697 5691 5685 5678 5672 5665 5658 5652 5645 5638 5631 5623 5616 5610 5604 5598 5593 5587 5582 5578 5575 5570
5753 5751 5748 5745 5741 5738 5734 5730 5726 5722 5718 5713 5709 5704 5699 5693 5687 5681 5675 5668 5662 5655 5648 5641 5634 5627 5621 5614 5607 5599 5594 5588 5582 5577 5572 5568 5564 5560
5746 5743 5740 5737 5733 5730 5726 5722 5718 5714 5710 5705 5700 5695 5690 5685 5679 5673 5666 5660 5653 5646 5639 5632 5625 5618 5611 5605 5599 5592 5585 5579 5574 5569 5564 5559 5556 5552
5738 5735 5732 5729 5725 5722 5718 5714 5710 5706 5702 5698 5693 5688 5683 5677 5671 5665 5659 5653 5646 5639 5632 5625 5618 5611 5604 5598 5592 5586 5580 5573 5567 5562 5558 5554 5550 5546
5731 5728 5725 5722 5718 5714 5711 5707 5703 5699 5695 5690 5686 5681 5676 5670 5665 5659 5652 5646 5640 5633 5626 5620 5613 5606 5600 5593 5587 5581 5575 5569 5563 5558 5553 5549 5544 5541
5724 5721 5718 5714 5711 5707 5704 5700 5696 5692 5688 5684 5679 5674 5669 5664 5658 5653 5647 5641 5634 5628 5621 5615 5608 5602 5595 5589 5583 5577 5571 5566 5560 5555 5551 5546 5542 5538